Showing default

USA 97, 22915

Orbit data source: Space-Track

USA 97, 22915 is an American payload satellite in GEO that was launched on Sun, 28 Nov 1993 UTC via an ATLAS II launch vehicle from the Air Force Eastern Test Range (AFETR). Payload-class satellites include a variety of spacecraft equipped with specific instruments for various scientific and technological missions. These include communications satellites like Starlink; space stations such as the ISS; scientific satellites like the Hubble; Earth observation satellites from companies like Planet Labs, Umbra, and HawkEye 360; GPS; miniature CubeSats for education and research; and military/defense satellites.

Loading next visibility...
Identifier
22915, 1993-074A
Orbit
GEO
Country
Flag of USUS
Related business
Manufacturer
MM/Valley Forge
Mission
Non-operational Defense Communications
Bus & Motor
DSCS III, AOCS
Mass
~1,232 kg wet, ~900 kg dry
Launch date (UTC)
1993-11-28 (32 years ago)
Launch vehicle
ATLAS II
Launch site
Air Force Eastern Test Range (AFETR)
Object type
Payload
Rocket body
Debris
Shape & HBR
Hex Poly + 2 Pan, 4.8 m
Radar Cross Section
8.439 m²

Expand to show TLE details & history
Last TLE update: 1 day ago

TLE from 1 day ago
0 USA 97
1 22915U 93074A   25352.40305245 -.00000184  00000-0  00000-0 0  9996
2 22915  13.6225  16.7452 0004601 349.7280 184.1387  0.98535932 23123
Epoch: 2025-12-18T09:40Z
TLE epoch observation values (Epoch: 2025-12-18T09:40:23.731Z)
Latitude
1.44241°
Longitude
-41.57766°
Altitude
36,299.205 km
Speed
3.055 km/s
True Right ascension
12h 43m 07s
True Declination
1° 26' 27"
Sunlit
Object was in daylight at epoch
Visualization orbit readout
Latitude
Unknown
Longitude
Unknown
Altitude
Unknown
Speed
Unknown
Apparent Right ascension
Unknown
Apparent Declination
Unknown
Sunlit
N/A
Visualization observer readout
Local Sidereal Time
15:32:54
Azimuth
Unknown
Elevation
Unknown
Doppler factor
Unknown
Orbital elements
Apogee altitude
36,300.948 km
Perigee altitude
36,261.693 km
Semi-major axis
42,659.457 km
Eccentricity
0.00046
Inclination
13.6225°
RAAN
16.7452°
Arg. of periapsis
349.728°
True anomaly
184.1349°
Mean anomaly
184.1387°
Eccentric anomaly
184.1368°
Mean motion
0.24633 °/min
Orbital period
1,461.44 mins
BSTAR
0
Loading maneuver chart data...
Computing Atmospheric mass density...
Loading historical data...
Loading historical data...
Loading historical data...
Loading historical data...
Loading historical data...
Loading historical data...
Loading historical data...
Other satellites on launch #74 in the year 1993 (1993-11-28 UTC)

Documentation

Showing up to 5 results
|